• Processing (Info)

  • MPEC 2019-V141 : 2019 VJ5

    The following Minor Planet Electronic Circular may be linked-to from your own Web pages, but must not otherwise be redistributed electronically.

    A form allowing access to any MPEC is at the bottom of this page.


    Read MPEC 2019-V140 Read MPEC 2019-V142


    M.P.E.C. 2019-V141                            Issued 2019 November 10, 01:23 UT
    
         The Minor Planet Electronic Circulars contain information on unusual
             minor planets and routine data on comets.  They are published
        on behalf of Division F of the International Astronomical Union by the
              Minor Planet Center, Smithsonian Astrophysical Observatory,
                              Cambridge, MA 02138, U.S.A.
    
                 Prepared using the Tamkin Foundation Computer Network
    
                                  MPC@CFA.HARVARD.EDU
                URL https://www.minorplanetcenter.net/    ISSN 1523-6714
    
                                    2019 VJ5                                 
    
    
    Observations:
         K19V05J  C2019 11 07.50134705 34 47.525-41 32 47.43         18.93GVEV141F51
         K19V05J  C2019 11 07.50946905 34 28.789-41 28 09.79         18.72GVEV141F51
         K19V05J  C2019 11 07.51755405 34 10.195-41 23 32.53         18.58GVEV141F51
         K19V05J  C2019 11 07.52540405 33 52.212-41 19 03.16               VEV141F51
         K19V05J* C2019 11 08.43537005 11 45.89 -34 06 22.9          18.52oVEV141T08
         K19V05J  C2019 11 08.44085805 11 38.94 -34 04 16.5          18.41oVEV141T08
         K19V05J  C2019 11 08.44454605 11 34.26 -34 02 51.8          18.58oVEV141T08
         K19V05J  C2019 11 08.45650805 11 19.26 -33 58 23.2          18.20oVEV141T08
         K19V05J  C2019 11 08.51437805 10 07.23 -33 36 36.3          17.97oVEV141T08
         K19V05J  C2019 11 08.51483705 10 06.62 -33 36 24.2          18.42oVEV141T08
         K19V05J  C2019 11 08.51529705 10 06.12 -33 36 15.3          17.95oVEV141T08
         K19V05J  C2019 11 08.51575705 10 05.62 -33 36 05.4          18.43oVEV141T08
         K19V05J KC2019 11 08.89879505 04 27.81 -31 16 36.7          18.4 GVEV141K91
         K19V05J KC2019 11 08.90116105 04 25.56 -31 15 52.6          17.9 GVEV141K91
         K19V05J KC2019 11 08.90313405 04 23.66 -31 15 16.1          18.2 GVEV141K91
         K19V05J KC2019 11 08.90550105 04 21.40 -31 14 32.1          17.9 GVEV141K91
    
    Observer details:
    F51 Pan-STARRS 1, Haleakala.  Observers J. Bulger, K. Chambers, T. Lowe, E. 
       Magnier, A. Schultz, M. Willman.  Measurers S. Chastel, M. Huber, Y. 
       Ramanjooloo, R. Wainscoat, R. Weryk.  1.8-m Ritchey-Chretien + CCD.
    K91 Sutherland-LCO A.  Observers T. Lister, J. Chatelain, E. Gomez, S. 
       Greenstreet.  Measurer T. Lister.  1.0-m f/8.0 Ritchey-Chretien + CCD.
    T08 ATLAS-MLO, Mauna Loa.  Observers L. Denneau, J. Tonry, A. Heinze, H. 
       Weiland, H. Flewelling.  Measurers L. Denneau, J. Tonry, A. Heinze, H. 
       Weiland, H. Flewelling, B. Stalder, A. Fitzsimmons, J. Robinson, D. Young, 
       N. Erasmus.  0.5-m reflector + CCD.
    
    Orbital elements:
    2019 VJ5                                                 Earth MOID = 0.0106 AU
    Epoch 2019 Apr. 27.0 TT = JDT 2458600.5                 Bell
    M 263.67421              (2000.0)            P               Q
    n   0.64520243     Peri.  129.76375     +0.97344005     +0.21439941
    a   1.3263925      Node   218.05295     -0.22872458     +0.92602401
    e   0.3341037      Incl.    7.48505     +0.00997693     +0.31066448
    P   1.53           H   25.1           G   0.15           U   7
    Residuals in seconds of arc
    191107 F51  0.1-  0.3+    191108 T08 (0.8-  2.4+)   191108 K91  0.1+  0.0
    191107 F51  0.2+  0.4-    191108 T08  0.2-  0.4+    191108 K91  0.1+  0.1+
    191107 F51  0.1+  0.2-    191108 T08  0.0   0.6-    191108 K91  0.1-  0.0
    191107 F51  0.3-  0.3+    191108 T08  0.6-  1.1+    191108 K91  0.1-  0.1+
    191108 T08  0.1+  1.0-    191108 T08  0.2+  0.4-
    191108 T08  0.4-  1.2+    191108 T08  1.0+  0.9-
    
    Ephemeris:
    2019 VJ5                 a,e,i = 1.33, 0.33, 7                   q = 0.8832
    Date    TT    R. A. (2000) Decl.     Delta      r    Elong.  Phase     V
    2019 10 11    15 54 55.8 +02 04 16   0.1398  0.9027    43.8   130.1    26.3
    ...
    2019 10 26    15 52 48.2 -03 04 43   0.05553 0.9464    29.5   148.8    26.9
    ...
    2019 11 03    14 52 41.5 -32 19 42   0.01535 0.9776    18.2   161.5    27.5
    ...
    2019 11 09    05 02 48.7 -30 45 50   0.02362 1.0039   123.4    55.5    19.0
    2019 11 10    04 52 17.1 -26 27 07   0.02851 1.0084   128.5    50.2    19.3
    2019 11 11    04 45 18.1 -23 22 25   0.03354 1.0130   132.3    46.3    19.5
    ...
    2019 11 17    04 27 34.1 -14 53 01   0.06506 1.0416   143.2    34.7    20.7
    ...
    2019 11 25    04 19 25.6 -10 39 47   0.1091  1.0817   148.4    28.6    21.7
    ...
    2019 12 10    04 14 16.4 -05 59 43   0.1998  1.1601   148.6    26.2    23.1
    
    A. U. Tomatic                (C) Copyright 2019 MPC           M.P.E.C. 2019-V141
    


    Read MPEC 2019-V140 Read MPEC 2019-V142


    MPEC number:

    Enter an MPEC number in one of the following forms:

    • 1997-B01 (the full form)
    • J97B01 (the packed version of the full form)
    • B01 (the abbreviated form)